Tracking 21970 objects as of 25-Nov-2020
HD Live streaming from Space Station
objects crossing your sky now

IRIDIUM 33 DEB

Track IRIDIUM 33 DEB now!
10-day predictions


NORAD ID: 35802
Int'l Code: 1997-051SL
Perigee: 683.3 km
Apogee: 813.5 km
Inclination: 86.5 °
Period: 99.6 minutes
Semi major axis: 7119 km
RCS: 0.0126 m2 (small)
Launch date: September 14, 1997
Source: United States (US)
Launch site: TYURATAM MISSILE AND SPACE COMPLEX (TTMTR)

Note: This is SATELLITE DEBRIS
aabbcc
Your satellite tracking list
Your tracking list is empty




NASA's NSSDC Master Catalog

Two Line Element Set (TLE):
1 35802U 97051SL  20329.84901319 +.00002116 +00000-0 +56781-3 0  9991
2 35802 086.4605 170.6842 0091492 187.6958 172.2848 14.45232017605086
Source of the keplerian elements: AFSPC